GLO6683 SBGR-TBPB

Flight info

Callsign GLO6683
Flight time 5h 25m
Altitude 35000
Route ISMOB UZ26 IBGAM UL576 TRAPP UL454 MASEP DCT INABA
Aircraft B38M/M-SDE1FGHILORVWXY/HB1

Departure

Time 2026-05-07 14:03
Airport São Paulo/Guarulhos–Governor André Franco Montoro International Airport (SBGR)

Arrival

Time 2026-05-07 19:28
Airport Grantley Adams International Airport (TBPB)
Time Latitude Longitude Altitude Speed Heading
2026-05-07 13:42 -23.42810 -46.48238 2464 ft 0 kts 265°
2026-05-07 13:51 -23.42808 -46.48221 2468 ft 2 kts 266°
2026-05-07 13:51 -23.42806 -46.48203 2467 ft 2 kts 247°
2026-05-07 13:51 -23.42797 -46.48189 2464 ft 2 kts 214°
2026-05-07 13:52 -23.42781 -46.48182 2464 ft 2 kts 189°
2026-05-07 13:52 -23.42773 -46.48181 2464 ft 1 kts 179°
2026-05-07 13:57 -23.42778 -46.48181 2464 ft 2 kts 179°
2026-05-07 13:57 -23.42804 -46.48178 2464 ft 5 kts 173°
2026-05-07 13:57 -23.42845 -46.48173 2470 ft 6 kts 173°
2026-05-07 13:57 -23.42891 -46.48169 2465 ft 7 kts 174°
2026-05-07 13:58 -23.42935 -46.48146 2464 ft 7 kts 152°
2026-05-07 13:58 -23.42986 -46.48139 2468 ft 8 kts 176°
2026-05-07 13:58 -23.43041 -46.48134 2465 ft 8 kts 173°
2026-05-07 13:58 -23.43098 -46.48129 2466 ft 8 kts 192°
2026-05-07 13:59 -23.43130 -46.48176 2464 ft 8 kts 253°
2026-05-07 13:59 -23.43146 -46.48238 2466 ft 9 kts 254°
2026-05-07 13:59 -23.43163 -46.48304 2464 ft 9 kts 254°
2026-05-07 13:59 -23.43184 -46.48373 2468 ft 10 kts 234°
2026-05-07 14:00 -23.43244 -46.48385 2466 ft 9 kts 162°
2026-05-07 14:00 -23.43303 -46.48363 2501 ft 9 kts 160°
2026-05-07 14:00 -23.43366 -46.48344 2476 ft 10 kts 164°
2026-05-07 14:00 -23.43417 -46.48322 2479 ft 5 kts 124°
2026-05-07 14:01 -23.43415 -46.48283 2474 ft 4 kts 72°
2026-05-07 14:01 -23.43415 -46.48281 2474 ft 0 kts 72°
2026-05-07 14:01 -23.43412 -46.48272 2478 ft 6 kts 72°
2026-05-07 14:02 -23.43341 -46.48013 2476 ft 68 kts 73°
2026-05-07 14:02 -23.43147 -46.47295 2476 ft 127 kts 73°
2026-05-07 14:02 -23.42850 -46.46202 2484 ft 173 kts 72°
2026-05-07 14:02 -23.42469 -46.44895 2844 ft 185 kts 70°
2026-05-07 14:03 -23.42082 -46.43532 3446 ft 191 kts 68°
2026-05-07 14:03 -23.41675 -46.42123 4214 ft 193 kts 69°
2026-05-07 14:03 -23.41249 -46.40649 4566 ft 223 kts 70°
2026-05-07 14:03 -23.40758 -46.38952 5096 ft 245 kts 70°
2026-05-07 14:04 -23.40219 -46.37110 5660 ft 263 kts 69°
2026-05-07 14:04 -23.39439 -46.35278 6335 ft 271 kts 53°
2026-05-07 14:04 -23.38425 -46.33567 7357 ft 268 kts 54°
2026-05-07 14:04 -23.37425 -46.31848 8170 ft 276 kts 54°
2026-05-07 14:05 -23.36392 -46.30060 9010 ft 278 kts 56°
2026-05-07 14:05 -23.35354 -46.28268 9950 ft 280 kts 56°
2026-05-07 14:05 -23.34313 -46.26471 10563 ft 291 kts 56°
2026-05-07 14:05 -23.33196 -46.24544 10879 ft 310 kts 56°
2026-05-07 14:06 -23.32008 -46.22496 11261 ft 326 kts 57°
2026-05-07 14:06 -23.30782 -46.20379 11812 ft 335 kts 57°
2026-05-07 14:06 -23.29536 -46.18232 12541 ft 336 kts 57°
2026-05-07 14:06 -23.28278 -46.16066 13187 ft 341 kts 58°
2026-05-07 14:07 -23.27018 -46.13895 13854 ft 344 kts 58°
2026-05-07 14:07 -23.25725 -46.11671 14442 ft 347 kts 58°
2026-05-07 14:07 -23.24442 -46.09466 14996 ft 351 kts 58°
2026-05-07 14:07 -23.23130 -46.07209 15562 ft 355 kts 58°
2026-05-07 14:08 -23.21613 -46.05077 16064 ft 358 kts 43°
2026-05-07 14:08 -23.19534 -46.03556 16598 ft 363 kts 25°
2026-05-07 14:08 -23.17140 -46.02761 17095 ft 367 kts
2026-05-07 14:08 -23.14574 -46.02737 17623 ft 372 kts 352°
2026-05-07 14:09 -23.12062 -46.03492 18128 ft 377 kts 336°
2026-05-07 14:09 -23.09819 -46.04988 18606 ft 381 kts 320°
2026-05-07 14:09 -23.07966 -46.07013 19068 ft 383 kts 314°
2026-05-07 14:09 -23.06164 -46.09163 19491 ft 386 kts 311°
2026-05-07 14:10 -23.04388 -46.11374 19957 ft 388 kts 310°
2026-05-07 14:10 -23.02629 -46.13609 20395 ft 390 kts 309°
2026-05-07 14:10 -23.00873 -46.15866 20852 ft 391 kts 309°
2026-05-07 14:10 -22.99141 -46.18108 21288 ft 393 kts 309°
2026-05-07 14:11 -22.97375 -46.20401 21754 ft 394 kts 308°
2026-05-07 14:11 -22.95609 -46.22694 22196 ft 396 kts 308°
2026-05-07 14:11 -22.93859 -46.24966 22619 ft 398 kts 308°
2026-05-07 14:11 -22.92078 -46.27277 23049 ft 400 kts 308°
2026-05-07 14:12 -22.90304 -46.29633 23445 ft 401 kts 302°
2026-05-07 14:12 -22.88983 -46.32290 23822 ft 400 kts 294°
2026-05-07 14:12 -22.87762 -46.34984 24103 ft 404 kts 294°
2026-05-07 14:12 -22.86524 -46.37729 24434 ft 406 kts 294°
2026-05-07 14:13 -22.85287 -46.40493 24760 ft 408 kts 293°
2026-05-07 14:13 -22.84059 -46.43246 25086 ft 410 kts 293°
2026-05-07 14:13 -22.82810 -46.46045 25415 ft 412 kts 293°
2026-05-07 14:13 -22.81551 -46.48868 25739 ft 415 kts 293°
2026-05-07 14:14 -22.80293 -46.51688 26068 ft 417 kts 293°
2026-05-07 14:14 -22.79044 -46.54482 26386 ft 419 kts 293°
2026-05-07 14:14 -22.77768 -46.57339 26692 ft 421 kts 293°
2026-05-07 14:14 -22.76484 -46.60208 27004 ft 423 kts 293°
2026-05-07 14:15 -22.75198 -46.63085 27315 ft 424 kts 293°
2026-05-07 14:15 -22.73917 -46.65945 27594 ft 427 kts 292°
2026-05-07 14:15 -22.72617 -46.68847 27899 ft 428 kts 292°
2026-05-07 14:15 -22.71310 -46.71764 28182 ft 430 kts 292°
2026-05-07 14:16 -22.70010 -46.74661 28467 ft 432 kts 292°
2026-05-07 14:16 -22.68696 -46.77591 28753 ft 434 kts 292°
2026-05-07 14:16 -22.67373 -46.80537 29030 ft 436 kts 292°
2026-05-07 14:16 -22.66041 -46.83492 29296 ft 438 kts 292°
2026-05-07 14:17 -22.64689 -46.86491 29569 ft 440 kts 292°
2026-05-07 14:17 -22.63249 -46.89375 29823 ft 445 kts 302°
2026-05-07 14:17 -22.61168 -46.91891 30124 ft 453 kts 316°
2026-05-07 14:17 -22.58520 -46.93766 30339 ft 462 kts 332°
2026-05-07 14:18 -22.55473 -46.94959 30555 ft 467 kts 339°
2026-05-07 14:18 -22.52358 -46.96025 30726 ft 470 kts 339°
2026-05-07 14:18 -22.49253 -46.97060 30934 ft 472 kts 339°
2026-05-07 14:18 -22.46103 -46.98091 31146 ft 474 kts 339°
2026-05-07 14:19 -22.42927 -46.99124 31348 ft 476 kts 340°
2026-05-07 14:19 -22.39780 -47.00143 31552 ft 477 kts 339°
2026-05-07 14:19 -22.36573 -47.01179 31759 ft 479 kts 339°
2026-05-07 14:19 -22.33408 -47.02201 31952 ft 481 kts 339°
2026-05-07 14:20 -22.30191 -47.03239 32152 ft 483 kts 339°
2026-05-07 14:20 -22.26948 -47.04284 32402 ft 483 kts 339°
2026-05-07 14:20 -22.23726 -47.05321 32666 ft 483 kts 339°
2026-05-07 14:20 -22.20497 -47.06361 32939 ft 483 kts 339°
2026-05-07 14:21 -22.17310 -47.07386 33211 ft 483 kts 339°
2026-05-07 14:21 -22.14075 -47.08427 33496 ft 483 kts 339°
2026-05-07 14:21 -22.10837 -47.09468 33750 ft 483 kts 339°
2026-05-07 14:21 -22.07645 -47.10493 34026 ft 483 kts 339°
2026-05-07 14:22 -22.04421 -47.11529 34258 ft 483 kts 339°
2026-05-07 14:22 -22.01193 -47.12565 34473 ft 482 kts 339°
2026-05-07 14:22 -21.97974 -47.13598 34689 ft 482 kts 339°
2026-05-07 14:22 -21.94761 -47.14628 34897 ft 482 kts 339°
2026-05-07 14:23 -21.91547 -47.15659 35071 ft 482 kts 339°
2026-05-07 14:23 -21.85151 -47.17707 35103 ft 481 kts 339°
2026-05-07 14:24 -21.78696 -47.19697 35092 ft 484 kts 346°
2026-05-07 14:24 -21.72022 -47.20602 35087 ft 487 kts 349°
2026-05-07 14:25 -21.65329 -47.21488 35072 ft 487 kts 349°
2026-05-07 14:25 -21.58580 -47.22376 35074 ft 487 kts 349°
2026-05-07 14:26 -21.51881 -47.23255 35079 ft 487 kts 349°
2026-05-07 14:26 -21.45140 -47.24139 35080 ft 487 kts 349°
2026-05-07 14:27 -21.38414 -47.25021 35079 ft 487 kts 349°
2026-05-07 14:27 -21.31752 -47.26098 35082 ft 486 kts 347°
2026-05-07 14:28 -21.25098 -47.27213 35077 ft 485 kts 347°
2026-05-07 14:28 -21.18408 -47.28327 35082 ft 486 kts 347°
2026-05-07 14:29 -21.11757 -47.29432 35077 ft 486 kts 347°
2026-05-07 14:29 -21.05062 -47.30542 35079 ft 486 kts 347°
2026-05-07 14:30 -20.98370 -47.31650 35084 ft 486 kts 347°
2026-05-07 14:30 -20.91723 -47.32751 35088 ft 486 kts 347°
2026-05-07 14:31 -20.85025 -47.33858 35087 ft 486 kts 347°
2026-05-07 14:31 -20.78325 -47.34965 35083 ft 486 kts 347°
2026-05-07 14:32 -20.71682 -47.36061 35087 ft 486 kts 347°
2026-05-07 14:32 -20.64981 -47.37167 35085 ft 486 kts 347°
2026-05-07 14:33 -20.58268 -47.38256 35086 ft 487 kts 348°
2026-05-07 14:33 -20.51573 -47.39261 35085 ft 487 kts 348°
2026-05-07 14:34 -20.44890 -47.40269 35082 ft 487 kts 348°
2026-05-07 14:34 -20.38183 -47.41281 35080 ft 487 kts 348°
2026-05-07 14:35 -20.31453 -47.42296 35077 ft 487 kts 348°
2026-05-07 14:35 -20.24764 -47.43303 35078 ft 487 kts 348°
2026-05-07 14:36 -20.18074 -47.44310 35073 ft 487 kts 348°
2026-05-07 14:36 -20.11375 -47.45318 35075 ft 488 kts 348°
2026-05-07 14:37 -20.04634 -47.46331 35048 ft 487 kts 348°
2026-05-07 14:37 -19.94592 -47.47839 35090 ft 488 kts 348°
2026-05-07 14:38 -19.87846 -47.48850 35076 ft 487 kts 348°
2026-05-07 14:38 -19.81165 -47.49851 35079 ft 487 kts 348°
2026-05-07 14:39 -19.74437 -47.50851 35084 ft 487 kts 349°
2026-05-07 14:39 -19.67733 -47.51832 35091 ft 487 kts 349°
2026-05-07 14:40 -19.61044 -47.52811 35090 ft 487 kts 349°
2026-05-07 14:40 -19.54306 -47.53796 35091 ft 487 kts 349°
2026-05-07 14:41 -19.47604 -47.54776 35093 ft 487 kts 349°
2026-05-07 14:41 -19.40878 -47.55758 35091 ft 487 kts 349°
2026-05-07 14:42 -19.34183 -47.56734 35091 ft 487 kts 349°
2026-05-07 14:42 -19.27445 -47.57717 35090 ft 487 kts 349°
2026-05-07 14:43 -19.20744 -47.58693 35086 ft 488 kts 349°
2026-05-07 14:43 -19.14007 -47.59673 35090 ft 488 kts 349°
2026-05-07 14:44 -19.07301 -47.60648 35089 ft 488 kts 349°
2026-05-07 14:44 -19.01686 -47.61446 35091 ft 488 kts 349°
2026-05-07 14:45 -18.93876 -47.62534 35090 ft 488 kts 349°
2026-05-07 14:45 -18.88263 -47.63316 35090 ft 488 kts 349°
2026-05-07 14:46 -18.81549 -47.64250 35086 ft 488 kts 349°
2026-05-07 14:46 -18.74803 -47.65189 35082 ft 488 kts 349°
2026-05-07 14:47 -18.68103 -47.66120 35089 ft 488 kts 349°
2026-05-07 14:47 -18.61350 -47.67061 35083 ft 488 kts 349°
2026-05-07 14:48 -18.54616 -47.68049 35077 ft 488 kts 349°
2026-05-07 14:48 -18.47920 -47.69029 35082 ft 488 kts 349°
2026-05-07 14:49 -18.41194 -47.70011 35082 ft 488 kts 349°
2026-05-07 14:49 -18.34450 -47.70995 35084 ft 488 kts 349°
2026-05-07 14:50 -18.27756 -47.72061 35074 ft 488 kts 348°
2026-05-07 14:50 -18.21025 -47.73195 35073 ft 488 kts 348°
2026-05-07 14:51 -18.14336 -47.74317 35074 ft 488 kts 348°
2026-05-07 14:51 -18.07651 -47.75436 35079 ft 488 kts 348°
2026-05-07 14:52 -18.00934 -47.76559 35069 ft 488 kts 348°
2026-05-07 14:52 -17.94260 -47.77674 35071 ft 488 kts 348°
2026-05-07 14:53 -17.87546 -47.78795 35071 ft 488 kts 348°
2026-05-07 14:53 -17.80872 -47.79909 35072 ft 488 kts 348°
2026-05-07 14:54 -17.74148 -47.81029 35077 ft 488 kts 348°
2026-05-07 14:54 -17.67468 -47.82142 35070 ft 488 kts 348°
2026-05-07 14:55 -17.60767 -47.83258 35077 ft 488 kts 348°
2026-05-07 14:55 -17.54072 -47.84371 35072 ft 488 kts 348°
2026-05-07 14:56 -17.47354 -47.85488 35075 ft 488 kts 348°
2026-05-07 14:56 -17.40670 -47.86597 35070 ft 488 kts 348°
2026-05-07 14:57 -17.33979 -47.87708 35070 ft 488 kts 348°
2026-05-07 14:57 -17.27257 -47.88822 35063 ft 488 kts 348°
2026-05-07 14:58 -17.20570 -47.89930 35066 ft 487 kts 348°
2026-05-07 14:58 -17.13849 -47.91043 35075 ft 488 kts 348°
2026-05-07 14:59 -17.07165 -47.92149 35069 ft 488 kts 348°
2026-05-07 14:59 -17.00451 -47.93259 35065 ft 487 kts 348°
2026-05-07 15:00 -16.93789 -47.94360 35059 ft 488 kts 348°
2026-05-07 15:00 -16.87063 -47.95471 35066 ft 488 kts 348°
2026-05-07 15:01 -16.80377 -47.96573 35065 ft 487 kts 348°
2026-05-07 15:01 -16.73703 -47.97674 35066 ft 488 kts 348°
2026-05-07 15:02 -16.66971 -47.98783 35060 ft 488 kts 348°
2026-05-07 15:02 -16.60294 -47.99882 35064 ft 488 kts 348°
2026-05-07 15:03 -16.53581 -48.00987 35063 ft 488 kts 348°
2026-05-07 15:03 -16.46857 -48.02092 35065 ft 488 kts 348°
2026-05-07 15:04 -16.40198 -48.03186 35055 ft 488 kts 348°
2026-05-07 15:04 -16.33457 -48.04292 35065 ft 488 kts 348°
2026-05-07 15:05 -16.26766 -48.05390 35068 ft 488 kts 348°
2026-05-07 15:05 -16.20085 -48.06486 35065 ft 488 kts 348°
2026-05-07 15:06 -16.13370 -48.07585 35094 ft 488 kts 348°
2026-05-07 15:06 -16.06670 -48.08683 35113 ft 488 kts 348°
2026-05-07 15:07 -15.99950 -48.09782 35130 ft 488 kts 348°
2026-05-07 15:07 -15.93286 -48.10871 35136 ft 487 kts 348°
2026-05-07 15:08 -15.86596 -48.11964 35141 ft 487 kts 348°
2026-05-07 15:08 -15.79908 -48.13056 35129 ft 487 kts 348°
2026-05-07 15:09 -15.73174 -48.14155 35116 ft 487 kts 348°
2026-05-07 15:09 -15.66513 -48.15241 35089 ft 487 kts 348°
2026-05-07 15:10 -15.59807 -48.16334 35063 ft 487 kts 348°
2026-05-07 15:10 -15.53104 -48.17426 35061 ft 487 kts 348°
2026-05-07 15:11 -15.46388 -48.18177 35057 ft 488 kts 356°
2026-05-07 15:11 -15.39606 -48.18401 35043 ft 490 kts 356°
2026-05-07 15:12 -15.32800 -48.18617 35041 ft 489 kts 356°
2026-05-07 15:12 -15.26009 -48.18832 35044 ft 489 kts 356°
2026-05-07 15:13 -15.19183 -48.19046 35040 ft 489 kts 356°
2026-05-07 15:13 -15.12404 -48.19259 35041 ft 490 kts 356°
2026-05-07 15:14 -15.05610 -48.19472 35038 ft 489 kts 356°
2026-05-07 15:14 -14.98787 -48.19686 35037 ft 489 kts 356°
2026-05-07 15:15 -14.92011 -48.19893 35040 ft 489 kts 356°
2026-05-07 15:15 -14.85182 -48.20083 35042 ft 489 kts 356°
2026-05-07 15:16 -14.78404 -48.20272 35035 ft 489 kts 356°
2026-05-07 15:16 -14.71618 -48.20462 35030 ft 489 kts 356°
2026-05-07 15:17 -14.64826 -48.20652 35031 ft 489 kts 356°
2026-05-07 15:17 -14.58005 -48.20843 35031 ft 488 kts 356°
2026-05-07 15:18 -14.51238 -48.21032 35027 ft 488 kts 356°
2026-05-07 15:18 -14.44431 -48.21222 35021 ft 488 kts 356°
2026-05-07 15:19 -14.37661 -48.21410 35018 ft 488 kts 356°
2026-05-07 15:19 -14.30887 -48.21599 35016 ft 488 kts 356°
2026-05-07 15:20 -14.24110 -48.21788 35014 ft 488 kts 356°
2026-05-07 15:20 -14.17307 -48.21977 35008 ft 487 kts 356°
2026-05-07 15:21 -14.10548 -48.22166 35007 ft 487 kts 356°
2026-05-07 15:21 -14.03740 -48.22355 35003 ft 487 kts 356°
2026-05-07 15:22 -13.96978 -48.22543 35009 ft 487 kts 356°
2026-05-07 15:22 -13.90212 -48.22730 35001 ft 487 kts 356°
2026-05-07 15:23 -13.83460 -48.22918 34999 ft 487 kts 356°
2026-05-07 15:23 -13.76706 -48.23105 35001 ft 486 kts 356°
2026-05-07 15:24 -13.69927 -48.23293 34999 ft 486 kts 356°
2026-05-07 15:24 -13.63165 -48.23480 34998 ft 486 kts 356°
2026-05-07 15:25 -13.56418 -48.23667 34997 ft 486 kts 356°
2026-05-07 15:25 -13.49671 -48.23854 34988 ft 486 kts 356°
2026-05-07 15:26 -13.42902 -48.24041 34998 ft 486 kts 356°
2026-05-07 15:26 -13.36164 -48.24227 34993 ft 486 kts 356°
2026-05-07 15:27 -13.29385 -48.24415 34991 ft 486 kts 356°
2026-05-07 15:27 -13.22641 -48.24601 34987 ft 486 kts 356°
2026-05-07 15:28 -13.15897 -48.24787 34986 ft 486 kts 356°
2026-05-07 15:28 -13.09141 -48.24973 34993 ft 486 kts 356°
2026-05-07 15:29 -13.02412 -48.25159 34986 ft 486 kts 356°
2026-05-07 15:29 -12.95625 -48.25346 34990 ft 486 kts 356°
2026-05-07 15:30 -12.88899 -48.25531 34982 ft 486 kts 356°
2026-05-07 15:30 -12.82170 -48.25716 34982 ft 486 kts 356°
2026-05-07 15:31 -12.75416 -48.25902 34984 ft 485 kts 356°
2026-05-07 15:31 -12.68634 -48.26089 34981 ft 485 kts 356°
2026-05-07 15:32 -12.61917 -48.26273 34983 ft 485 kts 356°
2026-05-07 15:32 -12.55167 -48.26459 34976 ft 485 kts 356°
2026-05-07 15:33 -12.48400 -48.26644 34977 ft 485 kts 356°
2026-05-07 15:33 -12.41677 -48.26828 34980 ft 485 kts 356°
2026-05-07 15:34 -12.34915 -48.27012 34973 ft 485 kts 356°
2026-05-07 15:34 -12.28203 -48.27195 34980 ft 485 kts 356°
2026-05-07 15:35 -12.21443 -48.27379 34969 ft 485 kts 356°
2026-05-07 15:35 -12.14711 -48.27563 34967 ft 485 kts 356°
2026-05-07 15:36 -12.07983 -48.27746 34973 ft 485 kts 356°
2026-05-07 15:36 -12.01269 -48.27928 34964 ft 484 kts 356°
2026-05-07 15:37 -11.94507 -48.28112 34966 ft 484 kts 356°
2026-05-07 15:37 -11.87794 -48.28295 34966 ft 484 kts 356°
2026-05-07 15:38 -11.81025 -48.28478 34969 ft 484 kts 356°
2026-05-07 15:38 -11.74312 -48.28661 34969 ft 484 kts 356°
2026-05-07 15:39 -11.67584 -48.28844 34966 ft 484 kts 356°
2026-05-07 15:39 -11.60845 -48.29029 34966 ft 484 kts 356°
2026-05-07 15:40 -11.54144 -48.29213 34965 ft 484 kts 356°
2026-05-07 15:40 -11.47415 -48.29398 34970 ft 483 kts 356°
2026-05-07 15:41 -11.40721 -48.29581 34963 ft 483 kts 356°
2026-05-07 15:41 -11.34013 -48.29765 34962 ft 483 kts 356°
2026-05-07 15:42 -11.27304 -48.30060 34962 ft 481 kts 354°
2026-05-07 15:42 -11.20644 -48.30496 34959 ft 481 kts 354°
2026-05-07 15:43 -11.13964 -48.30923 34960 ft 481 kts 354°
2026-05-07 15:43 -11.07252 -48.31348 34958 ft 481 kts 354°
2026-05-07 15:44 -11.00607 -48.31769 34954 ft 481 kts 354°
2026-05-07 15:44 -10.93923 -48.32169 34955 ft 480 kts 355°
2026-05-07 15:45 -10.87260 -48.32545 34958 ft 480 kts 354°
2026-05-07 15:45 -10.80611 -48.32921 34959 ft 480 kts 355°
2026-05-07 15:46 -10.70613 -48.33487 34959 ft 479 kts 355°
2026-05-07 15:47 -10.63919 -48.33865 34957 ft 479 kts 355°
2026-05-07 15:47 -10.58407 -48.34177 34964 ft 479 kts 355°
2026-05-07 15:48 -10.50656 -48.34615 34977 ft 479 kts 355°
2026-05-07 15:48 -10.45104 -48.34929 34985 ft 479 kts 355°
2026-05-07 15:49 -10.38477 -48.35303 34995 ft 479 kts 355°
2026-05-07 15:49 -10.31991 -48.36434 34982 ft 469 kts 334°
2026-05-07 15:50 -10.25969 -48.39075 34994 ft 472 kts 333°
2026-05-07 15:50 -10.19987 -48.41778 34990 ft 471 kts 333°
2026-05-07 15:51 -10.14031 -48.44501 34982 ft 471 kts 333°
2026-05-07 15:51 -10.08071 -48.47229 34974 ft 471 kts 333°
2026-05-07 15:52 -10.02080 -48.49970 34959 ft 471 kts 333°
2026-05-07 15:52 -9.96132 -48.52689 34955 ft 471 kts 333°
2026-05-07 15:53 -9.90137 -48.55430 34954 ft 471 kts 333°
2026-05-07 15:53 -9.84167 -48.58157 34954 ft 471 kts 333°
2026-05-07 15:54 -9.78182 -48.60891 34951 ft 471 kts 333°
2026-05-07 15:54 -9.72226 -48.63610 34951 ft 471 kts 333°
2026-05-07 15:55 -9.66342 -48.66552 34957 ft 469 kts 328°
2026-05-07 15:55 -9.60590 -48.69654 34950 ft 470 kts 329°
2026-05-07 15:56 -9.54824 -48.72731 34947 ft 470 kts 329°
2026-05-07 15:56 -9.49022 -48.75822 34947 ft 469 kts 329°
2026-05-07 15:57 -9.43256 -48.78893 34945 ft 470 kts 329°
2026-05-07 15:57 -9.37500 -48.81958 34948 ft 470 kts 329°
2026-05-07 15:58 -9.31694 -48.85049 34948 ft 470 kts 329°
2026-05-07 15:58 -9.25920 -48.88120 34945 ft 470 kts 329°
2026-05-07 15:59 -9.20115 -48.91208 34942 ft 470 kts 329°
2026-05-07 15:59 -9.14303 -48.94202 34941 ft 471 kts 330°
2026-05-07 16:00 -9.08442 -48.97146 34941 ft 471 kts 330°
2026-05-07 16:00 -9.02560 -49.00107 34937 ft 471 kts 330°
2026-05-07 16:01 -8.96696 -49.03059 34937 ft 471 kts 330°
2026-05-07 16:01 -8.90847 -49.06002 34940 ft 471 kts 330°
2026-05-07 16:02 -8.84966 -49.08960 34934 ft 472 kts 330°
2026-05-07 16:02 -8.79106 -49.11907 34933 ft 472 kts 330°
2026-05-07 16:03 -8.73219 -49.14866 34935 ft 472 kts 330°
2026-05-07 16:03 -8.67367 -49.17806 34933 ft 472 kts 330°
2026-05-07 16:04 -8.61506 -49.20750 34935 ft 472 kts 330°
2026-05-07 16:04 -8.55602 -49.23715 34929 ft 472 kts 330°
2026-05-07 16:05 -8.49749 -49.26652 34934 ft 472 kts 330°
2026-05-07 16:05 -8.43853 -49.29610 34932 ft 472 kts 330°
2026-05-07 16:06 -8.38002 -49.32545 34934 ft 472 kts 330°
2026-05-07 16:06 -8.32107 -49.35501 34932 ft 472 kts 330°
2026-05-07 16:07 -8.26250 -49.38437 34932 ft 472 kts 330°
2026-05-07 16:07 -8.20351 -49.41393 34929 ft 472 kts 331°
2026-05-07 16:08 -8.14493 -49.44327 34932 ft 472 kts 331°
2026-05-07 16:08 -8.08612 -49.47308 34931 ft 472 kts 330°
2026-05-07 16:09 -8.02763 -49.50285 34938 ft 472 kts 330°
2026-05-07 16:09 -7.96889 -49.53271 34931 ft 472 kts 330°
2026-05-07 16:10 -7.91049 -49.56240 34929 ft 472 kts 331°
2026-05-07 16:10 -7.85168 -49.59229 34930 ft 472 kts 331°
2026-05-07 16:11 -7.79332 -49.62194 34929 ft 472 kts 331°
2026-05-07 16:11 -7.73457 -49.65177 34929 ft 472 kts 331°
2026-05-07 16:12 -7.67583 -49.68160 34929 ft 472 kts 331°
2026-05-07 16:12 -7.61753 -49.71119 34929 ft 472 kts 331°
2026-05-07 16:13 -7.55858 -49.74077 34933 ft 472 kts 332°
2026-05-07 16:13 -7.49984 -49.77016 34936 ft 472 kts 332°
2026-05-07 16:14 -7.44117 -49.79952 34930 ft 472 kts 332°
2026-05-07 16:14 -7.38250 -49.82887 34942 ft 472 kts 332°
2026-05-07 16:15 -7.32343 -49.85841 34941 ft 472 kts 332°
2026-05-07 16:15 -7.26482 -49.88771 34944 ft 472 kts 332°
2026-05-07 16:16 -7.20619 -49.91702 34938 ft 472 kts 332°
2026-05-07 16:16 -7.14726 -49.94646 34943 ft 472 kts 332°
2026-05-07 16:17 -7.08857 -49.97578 34948 ft 472 kts 332°
2026-05-07 16:17 -7.03002 -50.00502 34943 ft 471 kts 332°
2026-05-07 16:18 -6.97094 -50.03451 34947 ft 471 kts 332°
2026-05-07 16:18 -6.91234 -50.06375 34943 ft 471 kts 332°
2026-05-07 16:19 -6.85375 -50.09299 34937 ft 470 kts 332°
2026-05-07 16:19 -6.79546 -50.12206 34941 ft 470 kts 332°
2026-05-07 16:20 -6.73661 -50.15141 34940 ft 470 kts 332°
2026-05-07 16:20 -6.67814 -50.18056 34938 ft 471 kts 332°
2026-05-07 16:21 -6.61944 -50.20977 34941 ft 471 kts 332°
2026-05-07 16:21 -6.56085 -50.23889 34940 ft 471 kts 332°
2026-05-07 16:22 -6.50202 -50.26813 34944 ft 471 kts 332°
2026-05-07 16:22 -6.44307 -50.29742 34938 ft 471 kts 332°
2026-05-07 16:23 -6.38438 -50.32657 34951 ft 472 kts 332°
2026-05-07 16:23 -6.32571 -50.35571 34948 ft 472 kts 332°
2026-05-07 16:24 -6.26693 -50.38489 34941 ft 472 kts 332°
2026-05-07 16:24 -6.20811 -50.41409 34948 ft 472 kts 333°
2026-05-07 16:25 -6.14902 -50.44341 34948 ft 472 kts 333°
2026-05-07 16:25 -6.09035 -50.47251 34945 ft 472 kts 333°
2026-05-07 16:26 -6.03135 -50.50178 34944 ft 472 kts 333°
2026-05-07 16:26 -5.97271 -50.53086 34941 ft 472 kts 333°
2026-05-07 16:27 -5.91371 -50.56011 34929 ft 471 kts 333°
2026-05-07 16:27 -5.85509 -50.58916 34948 ft 471 kts 333°
2026-05-07 16:28 -5.79629 -50.61830 34941 ft 469 kts 333°
2026-05-07 16:28 -5.73815 -50.64710 34934 ft 469 kts 333°
2026-05-07 16:29 -5.67954 -50.67613 34939 ft 469 kts 333°
2026-05-07 16:29 -5.62092 -50.70516 34935 ft 468 kts 333°
2026-05-07 16:30 -5.56272 -50.73399 34935 ft 468 kts 332°
2026-05-07 16:30 -5.50447 -50.76285 34942 ft 468 kts 333°
2026-05-07 16:31 -5.44629 -50.79166 34931 ft 467 kts 333°
2026-05-07 16:31 -5.38799 -50.82053 34934 ft 467 kts 332°
2026-05-07 16:32 -5.32958 -50.84944 34933 ft 467 kts 333°
2026-05-07 16:32 -5.27159 -50.87815 34931 ft 466 kts 333°
2026-05-07 16:33 -5.21357 -50.90686 34932 ft 466 kts 333°
2026-05-07 16:33 -5.15519 -50.93574 34929 ft 466 kts 332°
2026-05-07 16:34 -5.09715 -50.96446 34929 ft 466 kts 333°
2026-05-07 16:34 -5.03925 -50.99309 34926 ft 466 kts 333°
2026-05-07 16:35 -4.98102 -51.02188 34929 ft 465 kts 333°
2026-05-07 16:35 -4.92311 -51.05051 34928 ft 465 kts 332°
2026-05-07 16:36 -4.86515 -51.07916 34931 ft 465 kts 333°
2026-05-07 16:36 -4.80725 -51.10782 34955 ft 466 kts 332°
2026-05-07 16:36 -4.77812 -51.12225 35184 ft 465 kts 332°
2026-05-07 16:37 -4.74934 -51.13651 35407 ft 464 kts 332°
2026-05-07 16:37 -4.72036 -51.15086 35633 ft 464 kts 332°
2026-05-07 16:37 -4.69139 -51.16521 35850 ft 463 kts 332°
2026-05-07 16:38 -4.63396 -51.19365 35928 ft 462 kts 332°
2026-05-07 16:38 -4.57652 -51.22209 35929 ft 461 kts 332°
2026-05-07 16:39 -4.51916 -51.25048 35927 ft 460 kts 332°
2026-05-07 16:39 -4.46170 -51.27892 35927 ft 460 kts 332°
2026-05-07 16:40 -4.40413 -51.30741 35930 ft 460 kts 332°
2026-05-07 16:40 -4.34698 -51.33568 35926 ft 460 kts 332°
2026-05-07 16:41 -4.28977 -51.36398 35926 ft 460 kts 332°
2026-05-07 16:41 -4.23241 -51.39235 35925 ft 460 kts 332°
2026-05-07 16:42 -4.17478 -51.42085 35931 ft 460 kts 332°
2026-05-07 16:42 -4.11748 -51.44918 35925 ft 460 kts 332°
2026-05-07 16:43 -4.06029 -51.47745 35926 ft 460 kts 332°
2026-05-07 16:43 -4.00285 -51.50584 35927 ft 460 kts 332°
2026-05-07 16:44 -3.94563 -51.53412 35928 ft 460 kts 332°
2026-05-07 16:44 -3.88782 -51.56210 35930 ft 460 kts 333°
2026-05-07 16:45 -3.83033 -51.58961 35924 ft 460 kts 333°
2026-05-07 16:45 -3.77276 -51.61719 35925 ft 460 kts 333°
2026-05-07 16:46 -3.71496 -51.64488 35925 ft 460 kts 333°
2026-05-07 16:46 -3.65706 -51.67260 35919 ft 460 kts 333°
2026-05-07 16:47 -3.59953 -51.70015 35922 ft 460 kts 333°
2026-05-07 16:47 -3.54209 -51.72765 35929 ft 459 kts 333°
2026-05-07 16:48 -3.48468 -51.75513 35931 ft 458 kts 333°
2026-05-07 16:48 -3.42721 -51.78264 35928 ft 458 kts 333°
2026-05-07 16:49 -3.36947 -51.81044 35926 ft 458 kts 332°
2026-05-07 16:49 -3.31273 -51.83875 35930 ft 457 kts 332°
2026-05-07 16:50 -3.25583 -51.86703 35935 ft 457 kts 332°
2026-05-07 16:50 -3.19896 -51.89528 35929 ft 457 kts 332°
2026-05-07 16:51 -3.14178 -51.92369 35936 ft 457 kts 332°
2026-05-07 16:51 -3.08501 -51.95188 35934 ft 457 kts 332°
2026-05-07 16:52 -3.02831 -51.98004 35931 ft 456 kts 332°
2026-05-07 16:52 -2.97152 -52.00824 35932 ft 456 kts 332°
2026-05-07 16:53 -2.91459 -52.03651 35928 ft 456 kts 332°
2026-05-07 16:53 -2.85796 -52.06463 35933 ft 456 kts 332°
2026-05-07 16:54 -2.81048 -52.08819 35951 ft 457 kts 332°
2026-05-07 16:54 -2.75377 -52.11634 35929 ft 456 kts 332°
2026-05-07 16:55 -2.69698 -52.14453 35939 ft 457 kts 332°
2026-05-07 16:55 -2.63983 -52.17289 35936 ft 457 kts 332°
2026-05-07 16:56 -2.58312 -52.20103 35938 ft 457 kts 333°
2026-05-07 16:56 -2.49737 -52.24357 35930 ft 458 kts 333°
2026-05-07 16:57 -2.44051 -52.27178 35931 ft 458 kts 333°
2026-05-07 16:57 -2.38358 -52.30002 35931 ft 458 kts 333°
2026-05-07 16:58 -2.32621 -52.32848 35933 ft 458 kts 333°
2026-05-07 16:58 -2.26930 -52.35670 35930 ft 458 kts 333°
2026-05-07 16:59 -2.21230 -52.38496 35929 ft 458 kts 333°
2026-05-07 16:59 -2.15533 -52.41322 35931 ft 458 kts 333°
2026-05-07 17:00 -2.09812 -52.44158 35914 ft 458 kts 333°
2026-05-07 17:00 -2.04121 -52.46976 35927 ft 458 kts 333°
2026-05-07 17:01 -1.98386 -52.49807 35929 ft 459 kts 333°
2026-05-07 17:01 -1.92683 -52.52621 35927 ft 459 kts 333°
2026-05-07 17:02 -1.86922 -52.55465 35927 ft 460 kts 333°
2026-05-07 17:02 -1.81180 -52.58298 35927 ft 461 kts 333°
2026-05-07 17:03 -1.75439 -52.61131 35923 ft 462 kts 333°
2026-05-07 17:03 -1.69680 -52.63973 35923 ft 463 kts 333°
2026-05-07 17:04 -1.63884 -52.66833 35922 ft 463 kts 333°
2026-05-07 17:04 -1.58131 -52.69670 35928 ft 463 kts 333°
2026-05-07 17:05 -1.52349 -52.72523 35931 ft 462 kts 333°
2026-05-07 17:05 -1.46612 -52.75353 35925 ft 461 kts 333°
2026-05-07 17:06 -1.40826 -52.78207 35926 ft 461 kts 334°
2026-05-07 17:06 -1.35080 -52.81041 35929 ft 461 kts 334°
2026-05-07 17:07 -1.29346 -52.83869 35925 ft 461 kts 334°
2026-05-07 17:07 -1.23608 -52.86699 35927 ft 461 kts 334°
2026-05-07 17:08 -1.17841 -52.89543 35930 ft 461 kts 334°
2026-05-07 17:08 -1.12104 -52.92372 35930 ft 462 kts 334°
2026-05-07 17:09 -1.06333 -52.95218 35931 ft 462 kts 334°
2026-05-07 17:09 -1.00582 -52.98054 35933 ft 462 kts 334°
2026-05-07 17:10 -0.94822 -53.00894 35935 ft 462 kts 333°
2026-05-07 17:10 -0.89039 -53.03746 35936 ft 462 kts 333°
2026-05-07 17:11 -0.83303 -53.06573 35940 ft 462 kts 333°
2026-05-07 17:11 -0.77525 -53.09422 35943 ft 462 kts 333°
2026-05-07 17:12 -0.71761 -53.12264 35945 ft 462 kts 333°
2026-05-07 17:12 -0.66022 -53.15093 35949 ft 462 kts 333°
2026-05-07 17:13 -0.60245 -53.17941 35945 ft 462 kts 333°
2026-05-07 17:13 -0.54498 -53.20774 35944 ft 462 kts 333°
2026-05-07 17:14 -0.48721 -53.23622 35948 ft 461 kts 333°
2026-05-07 17:14 -0.42997 -53.26444 35947 ft 461 kts 333°
2026-05-07 17:15 -0.37262 -53.29271 35947 ft 461 kts 333°
2026-05-07 17:15 -0.31505 -53.32108 35944 ft 461 kts 333°
2026-05-07 17:16 -0.25770 -53.34935 35949 ft 460 kts 333°
2026-05-07 17:16 -0.20051 -53.37755 35943 ft 460 kts 333°
2026-05-07 17:17 -0.14290 -53.40594 35945 ft 460 kts 333°
2026-05-07 17:17 -0.08557 -53.43420 35942 ft 460 kts 333°
2026-05-07 17:18 -0.02840 -53.46238 35946 ft 460 kts 333°
2026-05-07 17:18 0.02884 -53.49059 35930 ft 460 kts 333°
2026-05-07 17:19 0.08644 -53.51899 35930 ft 460 kts 333°
2026-05-07 17:19 0.14363 -53.54718 35930 ft 460 kts 333°
2026-05-07 17:20 0.20101 -53.57546 35928 ft 460 kts 333°
2026-05-07 17:20 0.25859 -53.60383 35930 ft 460 kts 333°
2026-05-07 17:21 0.31595 -53.63202 35930 ft 461 kts 333°
2026-05-07 17:21 0.37363 -53.66037 35930 ft 461 kts 333°
2026-05-07 17:22 0.43102 -53.68857 35930 ft 461 kts 333°
2026-05-07 17:22 0.48841 -53.71678 35931 ft 462 kts 333°
2026-05-07 17:23 0.54626 -53.74522 35927 ft 462 kts 333°
2026-05-07 17:23 0.60389 -53.77354 35928 ft 462 kts 333°
2026-05-07 17:24 0.66154 -53.80188 35930 ft 463 kts 333°
2026-05-07 17:24 0.71947 -53.83036 35933 ft 463 kts 333°
2026-05-07 17:25 0.77707 -53.85867 35929 ft 463 kts 333°
2026-05-07 17:25 0.83478 -53.88704 35930 ft 463 kts 333°
2026-05-07 17:26 0.89238 -53.91535 35940 ft 463 kts 333°
2026-05-07 17:26 0.95018 -53.94377 35922 ft 462 kts 333°
2026-05-07 17:27 1.00780 -53.97210 35930 ft 463 kts 333°
2026-05-07 17:27 1.06532 -54.00038 35929 ft 463 kts 333°
2026-05-07 17:28 1.12323 -54.02885 35937 ft 462 kts 333°
2026-05-07 17:28 1.18080 -54.05716 35927 ft 462 kts 333°
2026-05-07 17:29 1.23860 -54.08558 35931 ft 462 kts 333°
2026-05-07 17:29 1.29613 -54.11387 35931 ft 461 kts 333°
2026-05-07 17:30 1.35344 -54.14205 35929 ft 461 kts 333°
2026-05-07 17:30 1.41119 -54.17045 35931 ft 461 kts 332°
2026-05-07 17:31 1.46867 -54.19872 35932 ft 461 kts 332°
2026-05-07 17:31 1.52607 -54.22695 35932 ft 461 kts 332°
2026-05-07 17:32 1.58379 -54.25534 35929 ft 461 kts 332°
2026-05-07 17:32 1.63133 -54.27873 35930 ft 460 kts 332°
2026-05-07 17:33 1.69834 -54.31170 35931 ft 460 kts 332°
2026-05-07 17:33 1.75597 -54.34005 35928 ft 460 kts 332°
2026-05-07 17:34 1.81337 -54.36829 35932 ft 460 kts 332°
2026-05-07 17:34 1.87075 -54.39652 35929 ft 460 kts 332°
2026-05-07 17:35 1.92802 -54.42470 35928 ft 460 kts 332°
2026-05-07 17:35 1.98524 -54.45286 35927 ft 460 kts 332°
2026-05-07 17:36 2.04264 -54.48111 35930 ft 460 kts 332°
2026-05-07 17:36 2.10013 -54.50941 35930 ft 460 kts 332°
2026-05-07 17:37 2.15740 -54.53760 35930 ft 459 kts 332°
2026-05-07 17:37 2.21452 -54.56572 35930 ft 459 kts 332°
2026-05-07 17:38 2.27189 -54.59396 35931 ft 459 kts 332°
2026-05-07 17:38 2.32943 -54.62229 35931 ft 459 kts 332°
2026-05-07 17:39 2.38642 -54.65035 35931 ft 459 kts 332°
2026-05-07 17:39 2.44391 -54.67866 35932 ft 459 kts 332°
2026-05-07 17:40 2.47305 -54.69085 35914 ft 460 kts 344°
2026-05-07 17:40 2.50455 -54.69683 35942 ft 461 kts 348°
2026-05-07 17:40 2.56774 -54.70785 35927 ft 462 kts 349°
2026-05-07 17:41 2.63141 -54.71848 35924 ft 462 kts 349°
2026-05-07 17:41 2.69465 -54.72892 35928 ft 462 kts 349°
2026-05-07 17:42 2.75803 -54.73937 35919 ft 462 kts 349°
2026-05-07 17:42 2.82130 -54.74979 35924 ft 462 kts 349°
2026-05-07 17:43 2.88498 -54.76028 35922 ft 462 kts 349°
2026-05-07 17:43 2.94832 -54.77071 35919 ft 462 kts 349°
2026-05-07 17:44 3.01159 -54.78114 35921 ft 462 kts 349°
2026-05-07 17:44 3.07522 -54.79162 35920 ft 462 kts 349°
2026-05-07 17:45 3.13846 -54.80205 35918 ft 462 kts 349°
2026-05-07 17:45 3.20212 -54.81254 35917 ft 462 kts 349°
2026-05-07 17:46 3.26533 -54.82295 35918 ft 462 kts 349°
2026-05-07 17:46 3.32841 -54.83335 35918 ft 462 kts 349°
2026-05-07 17:47 3.39223 -54.84388 35919 ft 461 kts 349°
2026-05-07 17:47 3.45540 -54.85429 35919 ft 462 kts 349°
2026-05-07 17:48 3.51857 -54.86471 35918 ft 462 kts 348°
2026-05-07 17:48 3.58176 -54.87513 35916 ft 461 kts 349°
2026-05-07 17:49 3.64530 -54.88562 35917 ft 461 kts 348°
2026-05-07 17:49 3.70834 -54.89602 35920 ft 461 kts 348°
2026-05-07 17:50 3.77140 -54.90642 35919 ft 461 kts 349°
2026-05-07 17:50 3.83498 -54.91691 35920 ft 461 kts 348°
2026-05-07 17:51 3.89818 -54.92734 35917 ft 461 kts 348°
2026-05-07 17:51 3.96123 -54.93775 35918 ft 461 kts 348°
2026-05-07 17:52 4.02426 -54.94816 35919 ft 460 kts 348°
2026-05-07 17:52 4.08758 -54.95862 35918 ft 460 kts 348°
2026-05-07 17:53 4.15055 -54.96902 35917 ft 460 kts 348°
2026-05-07 17:53 4.21387 -54.97948 35917 ft 460 kts 348°
2026-05-07 17:54 4.27687 -54.98989 35922 ft 460 kts 348°
2026-05-07 17:54 4.33982 -55.00029 35921 ft 460 kts 348°
2026-05-07 17:55 4.40283 -55.01070 35915 ft 460 kts 348°
2026-05-07 17:55 4.45557 -55.01942 35916 ft 460 kts 348°
2026-05-07 17:56 4.51884 -55.02988 35920 ft 460 kts 348°
2026-05-07 17:56 4.58183 -55.04029 35921 ft 460 kts 348°
2026-05-07 17:57 4.64485 -55.05072 35921 ft 460 kts 348°
2026-05-07 17:57 4.70804 -55.06117 35919 ft 460 kts 349°
2026-05-07 17:58 4.77108 -55.07160 35921 ft 460 kts 348°
2026-05-07 17:58 4.83403 -55.08201 35923 ft 460 kts 349°
2026-05-07 17:59 4.89749 -55.09252 35926 ft 460 kts 349°
2026-05-07 17:59 4.96057 -55.10296 35926 ft 460 kts 349°
2026-05-07 18:00 5.02349 -55.11338 35928 ft 460 kts 348°
2026-05-07 18:00 5.08633 -55.12378 35932 ft 459 kts 349°
2026-05-07 18:01 5.14953 -55.13425 35937 ft 459 kts 349°
2026-05-07 18:01 5.21235 -55.14466 35942 ft 459 kts 348°
2026-05-07 18:02 5.30700 -55.16034 35961 ft 459 kts 349°
2026-05-07 18:03 5.36987 -55.17076 35967 ft 459 kts 349°
2026-05-07 18:03 5.43301 -55.18123 35971 ft 459 kts 348°
2026-05-07 18:04 5.49505 -55.19470 35972 ft 458 kts 345°
2026-05-07 18:04 5.55754 -55.20858 35961 ft 458 kts 345°
2026-05-07 18:05 5.61952 -55.22226 35963 ft 458 kts 345°
2026-05-07 18:05 5.68154 -55.23594 35961 ft 458 kts 346°
2026-05-07 18:06 5.74409 -55.24972 35944 ft 458 kts 345°
2026-05-07 18:06 5.80619 -55.26341 35953 ft 458 kts 346°
2026-05-07 18:07 5.86816 -55.27708 35957 ft 458 kts 346°
2026-05-07 18:07 5.93078 -55.29089 35945 ft 458 kts 345°
2026-05-07 18:08 5.99289 -55.30459 35938 ft 458 kts 346°
2026-05-07 18:08 6.05492 -55.31828 35936 ft 458 kts 346°
2026-05-07 18:09 6.11713 -55.33200 35935 ft 458 kts 346°
2026-05-07 18:09 6.17916 -55.34570 35938 ft 458 kts 346°
2026-05-07 18:10 6.24159 -55.35948 35940 ft 458 kts 346°
2026-05-07 18:10 6.30351 -55.37316 35938 ft 458 kts 346°
2026-05-07 18:11 6.36553 -55.38686 35935 ft 457 kts 346°
2026-05-07 18:11 6.42794 -55.40065 35939 ft 458 kts 346°
2026-05-07 18:12 6.48999 -55.41437 35941 ft 457 kts 346°
2026-05-07 18:12 6.55231 -55.42814 35940 ft 457 kts 346°
2026-05-07 18:13 6.61436 -55.44187 35937 ft 457 kts 346°
2026-05-07 18:13 6.67628 -55.45556 35940 ft 457 kts 346°
2026-05-07 18:14 6.73820 -55.46926 35940 ft 457 kts 346°
2026-05-07 18:14 6.80048 -55.48304 35942 ft 457 kts 346°
2026-05-07 18:15 6.86242 -55.49676 35940 ft 457 kts 346°
2026-05-07 18:15 6.92448 -55.51050 35942 ft 457 kts 346°
2026-05-07 18:16 6.98628 -55.52418 35945 ft 457 kts 346°
2026-05-07 18:16 7.04859 -55.53799 35945 ft 457 kts 346°
2026-05-07 18:17 7.11030 -55.55166 35945 ft 457 kts 345°
2026-05-07 18:17 7.17254 -55.56546 35945 ft 457 kts 345°
2026-05-07 18:18 7.23430 -55.57916 35949 ft 457 kts 345°
2026-05-07 18:18 7.29632 -55.59291 35943 ft 456 kts 345°
2026-05-07 18:19 7.35850 -55.60671 35946 ft 457 kts 345°
2026-05-07 18:19 7.42038 -55.62044 35948 ft 456 kts 345°
2026-05-07 18:20 7.48219 -55.63416 35947 ft 457 kts 345°
2026-05-07 18:20 7.54437 -55.64796 35949 ft 457 kts 345°
2026-05-07 18:21 7.60621 -55.66170 35950 ft 457 kts 345°
2026-05-07 18:21 7.66842 -55.67552 35946 ft 457 kts 345°
2026-05-07 18:22 7.73060 -55.68934 35948 ft 457 kts 345°
2026-05-07 18:22 7.79239 -55.70308 35953 ft 457 kts 345°
2026-05-07 18:23 7.85461 -55.71691 35950 ft 456 kts 345°
2026-05-07 18:23 7.91639 -55.73066 35950 ft 457 kts 345°
2026-05-07 18:24 7.97861 -55.74450 35949 ft 457 kts 345°
2026-05-07 18:24 8.04058 -55.75830 35950 ft 456 kts 345°
2026-05-07 18:25 8.10230 -55.77204 35954 ft 456 kts 345°
2026-05-07 18:25 8.16445 -55.78588 35949 ft 456 kts 345°
2026-05-07 18:26 8.22622 -55.79964 35953 ft 456 kts 345°
2026-05-07 18:26 8.28835 -55.81349 35957 ft 457 kts 345°
2026-05-07 18:27 8.35018 -55.82727 35955 ft 457 kts 345°
2026-05-07 18:27 8.41254 -55.84118 35956 ft 457 kts 345°
2026-05-07 18:28 8.47433 -55.85496 35959 ft 457 kts 345°
2026-05-07 18:28 8.53623 -55.86878 35956 ft 457 kts 345°
2026-05-07 18:29 8.59853 -55.88268 35953 ft 457 kts 345°
2026-05-07 18:29 8.66052 -55.89653 35958 ft 457 kts 345°
2026-05-07 18:30 8.72276 -55.91043 35958 ft 457 kts 345°
2026-05-07 18:30 8.78478 -55.92429 35955 ft 457 kts 345°
2026-05-07 18:31 8.84664 -55.93812 35962 ft 457 kts 345°
2026-05-07 18:31 8.90884 -55.95202 35959 ft 457 kts 345°
2026-05-07 18:32 8.97075 -55.96587 35959 ft 457 kts 345°
2026-05-07 18:32 9.03302 -55.97980 35956 ft 457 kts 345°
2026-05-07 18:33 9.09130 -56.00226 35956 ft 445 kts 320°
2026-05-07 18:33 9.13821 -56.04267 35959 ft 445 kts 315°
2026-05-07 18:34 9.18424 -56.08496 35958 ft 445 kts 315°
2026-05-07 18:34 9.22938 -56.12720 35959 ft 445 kts 314°
2026-05-07 18:35 9.27481 -56.16987 35958 ft 445 kts 314°
2026-05-07 18:35 9.32001 -56.21235 35958 ft 445 kts 314°
2026-05-07 18:36 9.36528 -56.25491 35964 ft 444 kts 314°
2026-05-07 18:36 9.41067 -56.29760 35964 ft 444 kts 314°
2026-05-07 18:37 9.45603 -56.34028 35958 ft 444 kts 314°
2026-05-07 18:37 9.50106 -56.38266 35966 ft 444 kts 314°
2026-05-07 18:38 9.54637 -56.42532 35959 ft 444 kts 314°
2026-05-07 18:38 9.59143 -56.46777 35961 ft 444 kts 314°
2026-05-07 18:39 9.63662 -56.51035 35962 ft 444 kts 314°
2026-05-07 18:39 9.68186 -56.55299 35962 ft 444 kts 314°
2026-05-07 18:40 9.72691 -56.59548 35962 ft 443 kts 314°
2026-05-07 18:40 9.77185 -56.63787 35969 ft 443 kts 314°
2026-05-07 18:41 9.81707 -56.68055 35966 ft 443 kts 314°
2026-05-07 18:41 9.86200 -56.72297 35971 ft 443 kts 314°
2026-05-07 18:42 9.90715 -56.76561 35971 ft 443 kts 314°
2026-05-07 18:42 9.95215 -56.80813 35968 ft 443 kts 314°
2026-05-07 18:43 9.99734 -56.85085 35973 ft 443 kts 313°
2026-05-07 18:43 10.04214 -56.89321 35970 ft 443 kts 313°
2026-05-07 18:44 10.08729 -56.93592 35966 ft 443 kts 313°
2026-05-07 18:44 10.13206 -56.97828 35971 ft 442 kts 313°
2026-05-07 18:45 10.17712 -57.02095 35970 ft 442 kts 313°
2026-05-07 18:45 10.22218 -57.06364 35972 ft 442 kts 313°
2026-05-07 18:46 10.26691 -57.10601 35973 ft 442 kts 313°
2026-05-07 18:46 10.31164 -57.14842 35972 ft 441 kts 313°
2026-05-07 18:47 10.35642 -57.19089 35972 ft 441 kts 313°
2026-05-07 18:47 10.40135 -57.23351 35975 ft 441 kts 313°
2026-05-07 18:48 10.44632 -57.27620 35972 ft 441 kts 313°
2026-05-07 18:48 10.49090 -57.31853 35971 ft 441 kts 313°
2026-05-07 18:49 10.53549 -57.36089 35974 ft 440 kts 313°
2026-05-07 18:49 10.58032 -57.40349 35974 ft 440 kts 313°
2026-05-07 18:50 10.62480 -57.44578 35976 ft 440 kts 313°
2026-05-07 18:50 10.66949 -57.48828 35974 ft 440 kts 313°
2026-05-07 18:51 10.71417 -57.53079 35976 ft 439 kts 313°
2026-05-07 18:51 10.75883 -57.57331 35976 ft 439 kts 313°
2026-05-07 18:52 10.80327 -57.61563 35979 ft 439 kts 313°
2026-05-07 18:52 10.84761 -57.65787 35979 ft 438 kts 313°
2026-05-07 18:53 10.89229 -57.70046 35979 ft 438 kts 313°
2026-05-07 18:53 10.93653 -57.74265 35976 ft 438 kts 313°
2026-05-07 18:54 10.98080 -57.78488 35978 ft 437 kts 313°
2026-05-07 18:54 11.02525 -57.82729 35981 ft 437 kts 313°
2026-05-07 18:55 11.06948 -57.86953 35979 ft 437 kts 313°
2026-05-07 18:55 11.11380 -57.91187 35980 ft 436 kts 312°
2026-05-07 18:56 11.15789 -57.95400 35982 ft 436 kts 312°
2026-05-07 18:56 11.20232 -57.99647 35983 ft 436 kts 312°
2026-05-07 18:57 11.24651 -58.03873 35981 ft 436 kts 312°
2026-05-07 18:57 11.29047 -58.08080 35980 ft 436 kts 312°
2026-05-07 18:58 11.33473 -58.12317 35978 ft 436 kts 312°
2026-05-07 18:58 11.37155 -58.15843 35982 ft 436 kts 312°
2026-05-07 18:59 11.41565 -58.20068 35981 ft 435 kts 312°
2026-05-07 18:59 11.44429 -58.22812 35902 ft 416 kts 311°
2026-05-07 18:59 11.45842 -58.24168 35722 ft 411 kts 311°
2026-05-07 18:59 11.48589 -58.26802 35048 ft 409 kts 311°
2026-05-07 19:00 11.49994 -58.28150 34691 ft 409 kts 311°
2026-05-07 19:00 11.52042 -58.30115 34202 ft 408 kts 311°
2026-05-07 19:00 11.54112 -58.32100 33688 ft 407 kts 311°
2026-05-07 19:00 11.56171 -58.34076 33158 ft 405 kts 311°
2026-05-07 19:01 11.58222 -58.36044 32688 ft 403 kts 311°
2026-05-07 19:01 11.60236 -58.37977 32222 ft 400 kts 311°
2026-05-07 19:01 11.62255 -58.39917 31761 ft 398 kts 311°
2026-05-07 19:01 11.64284 -58.41865 31303 ft 397 kts 311°
2026-05-07 19:02 11.66258 -58.43762 30859 ft 395 kts 311°
2026-05-07 19:02 11.68261 -58.45686 30412 ft 393 kts 311°
2026-05-07 19:02 11.70250 -58.47598 29973 ft 392 kts 311°
2026-05-07 19:02 11.72229 -58.49500 29462 ft 390 kts 311°
2026-05-07 19:03 11.74203 -58.51397 29019 ft 388 kts 311°
2026-05-07 19:03 11.76161 -58.53280 28601 ft 384 kts 311°
2026-05-07 19:03 11.78079 -58.55125 28198 ft 381 kts 311°
2026-05-07 19:03 11.80002 -58.56974 27803 ft 378 kts 311°
2026-05-07 19:04 11.81918 -58.58818 27395 ft 376 kts 311°
2026-05-07 19:04 11.83815 -58.60643 26978 ft 373 kts 311°
2026-05-07 19:04 11.85699 -58.62457 26609 ft 371 kts 311°
2026-05-07 19:04 11.87551 -58.64239 26228 ft 369 kts 311°
2026-05-07 19:05 11.89414 -58.66033 25851 ft 367 kts 312°
2026-05-07 19:05 11.91270 -58.67823 25437 ft 366 kts 312°
2026-05-07 19:05 11.93131 -58.69619 25006 ft 366 kts 312°
2026-05-07 19:05 11.94953 -58.71376 24671 ft 363 kts 312°
2026-05-07 19:06 11.96790 -58.73150 24303 ft 362 kts 312°
2026-05-07 19:06 12.00420 -58.76653 23563 ft 359 kts 313°
2026-05-07 19:06 12.02242 -58.78412 23129 ft 358 kts 313°
2026-05-07 19:07 12.04051 -58.80158 22731 ft 356 kts 313°
2026-05-07 19:07 12.05842 -58.81889 22362 ft 353 kts 313°
2026-05-07 19:07 12.07605 -58.83592 22004 ft 350 kts 313°
2026-05-07 19:07 12.09370 -58.85298 21644 ft 347 kts 313°
2026-05-07 19:08 12.11119 -58.86988 21288 ft 345 kts 313°
2026-05-07 19:08 12.12867 -58.88677 20933 ft 342 kts 314°
2026-05-07 19:08 12.14594 -58.90347 20584 ft 340 kts 314°
2026-05-07 19:08 12.16286 -58.91983 20241 ft 338 kts 314°
2026-05-07 19:09 12.17996 -58.93638 19896 ft 336 kts 314°
2026-05-07 19:09 12.19693 -58.95279 19560 ft 334 kts 314°
2026-05-07 19:09 12.21383 -58.96913 19209 ft 333 kts 314°
2026-05-07 19:09 12.23044 -58.98522 18872 ft 331 kts 314°
2026-05-07 19:10 12.24717 -59.00140 18537 ft 330 kts 314°
2026-05-07 19:10 12.26386 -59.01757 18188 ft 329 kts 315°
2026-05-07 19:10 12.28023 -59.03341 17810 ft 327 kts 315°
2026-05-07 19:10 12.29670 -59.04936 17458 ft 324 kts 315°
2026-05-07 19:11 12.31304 -59.06519 17121 ft 321 kts 315°
2026-05-07 19:11 12.32923 -59.08088 16803 ft 319 kts 316°
2026-05-07 19:11 12.34529 -59.09643 16463 ft 316 kts 316°
2026-05-07 19:11 12.36103 -59.11167 16141 ft 314 kts 316°
2026-05-07 19:12 12.37686 -59.12703 15819 ft 311 kts 317°
2026-05-07 19:12 12.39255 -59.14224 15496 ft 309 kts 317°
2026-05-07 19:12 12.40810 -59.15732 15178 ft 307 kts 317°
2026-05-07 19:12 12.42357 -59.17232 14855 ft 305 kts 318°
2026-05-07 19:13 12.43873 -59.18702 14554 ft 303 kts 318°
2026-05-07 19:13 12.45405 -59.20189 14233 ft 302 kts 319°
2026-05-07 19:13 12.46918 -59.21657 13924 ft 300 kts 319°
2026-05-07 19:13 12.48442 -59.23136 13587 ft 299 kts 319°
2026-05-07 19:14 12.49949 -59.24600 13243 ft 298 kts 319°
2026-05-07 19:14 12.51430 -59.26038 12926 ft 296 kts 319°
2026-05-07 19:14 12.52921 -59.27485 12607 ft 294 kts 319°
2026-05-07 19:14 12.54404 -59.28925 12302 ft 291 kts 319°
2026-05-07 19:15 12.55853 -59.30333 12003 ft 289 kts 319°
2026-05-07 19:15 12.57303 -59.31741 11703 ft 287 kts 319°
2026-05-07 19:15 12.58747 -59.33144 11402 ft 285 kts 319°
2026-05-07 19:15 12.60181 -59.34538 11105 ft 283 kts 319°
2026-05-07 19:16 12.61608 -59.35925 10803 ft 281 kts 319°
2026-05-07 19:16 12.63009 -59.37287 10510 ft 280 kts 318°
2026-05-07 19:16 12.64420 -59.38658 10221 ft 279 kts 318°
2026-05-07 19:16 12.65815 -59.40015 10053 ft 274 kts 318°
2026-05-07 19:17 12.67212 -59.41374 9780 ft 280 kts 318°
2026-05-07 19:17 12.68635 -59.42757 9446 ft 282 kts 318°
2026-05-07 19:17 12.70061 -59.44144 9133 ft 282 kts 317°
2026-05-07 19:17 12.71461 -59.45507 8834 ft 281 kts 317°
2026-05-07 19:18 12.72881 -59.46888 8527 ft 280 kts 317°
2026-05-07 19:18 12.74291 -59.48261 8228 ft 278 kts 317°
2026-05-07 19:18 12.75694 -59.49627 7929 ft 277 kts 317°
2026-05-07 19:18 12.77073 -59.50970 7635 ft 275 kts 317°
2026-05-07 19:19 12.78461 -59.52321 7337 ft 274 kts 317°
2026-05-07 19:19 12.79841 -59.53665 7039 ft 273 kts 317°
2026-05-07 19:19 12.81207 -59.54996 6752 ft 272 kts 317°
2026-05-07 19:19 12.82576 -59.56329 6456 ft 271 kts 317°
2026-05-07 19:20 12.83949 -59.57667 6141 ft 270 kts 317°
2026-05-07 19:20 12.85295 -59.58978 5836 ft 269 kts 317°
2026-05-07 19:20 12.86651 -59.60299 5526 ft 268 kts 317°
2026-05-07 19:20 12.88004 -59.61618 5238 ft 266 kts 318°
2026-05-07 19:21 12.89327 -59.62909 4966 ft 264 kts 318°
2026-05-07 19:21 12.90636 -59.64186 4818 ft 254 kts 318°
2026-05-07 19:21 12.91894 -59.65413 4678 ft 243 kts 318°
2026-05-07 19:21 12.93229 -59.66352 4481 ft 231 kts 342°
2026-05-07 19:22 12.94741 -59.66786 4366 ft 219 kts 346°
2026-05-07 19:22 12.96159 -59.67175 4314 ft 208 kts 347°
2026-05-07 19:22 12.97555 -59.67549 4175 ft 200 kts 348°
2026-05-07 19:22 12.98864 -59.67894 4035 ft 194 kts 348°
2026-05-07 19:23 13.00191 -59.68234 3924 ft 199 kts 351°
2026-05-07 19:23 13.01557 -59.68154 3638 ft 197 kts 23°
2026-05-07 19:23 13.02635 -59.67331 3385 ft 193 kts 53°
2026-05-07 19:23 13.03275 -59.66135 3149 ft 194 kts 68°
2026-05-07 19:24 13.03670 -59.64810 2931 ft 192 kts 75°
2026-05-07 19:24 13.03969 -59.63522 2678 ft 183 kts 75°
2026-05-07 19:24 13.04264 -59.62289 2419 ft 171 kts 75°
2026-05-07 19:24 13.04542 -59.61147 2192 ft 160 kts 75°
2026-05-07 19:25 13.04810 -59.60049 1985 ft 159 kts 76°
2026-05-07 19:25 13.05072 -59.58977 1791 ft 149 kts 75°
2026-05-07 19:25 13.05316 -59.57980 1604 ft 143 kts 76°
2026-05-07 19:25 13.05557 -59.56997 1402 ft 140 kts 76°
2026-05-07 19:26 13.05794 -59.56022 1231 ft 141 kts 77°
2026-05-07 19:26 13.06029 -59.55066 1020 ft 139 kts 76°
2026-05-07 19:26 13.06266 -59.54093 894 ft 140 kts 76°
2026-05-07 19:26 13.06511 -59.53100 689 ft 146 kts 76°
2026-05-07 19:27 13.06743 -59.52142 461 ft 134 kts 76°
2026-05-07 19:27 13.06989 -59.51160 301 ft 141 kts 77°
2026-05-07 19:27 13.07227 -59.50196 184 ft 130 kts 76°
2026-05-07 19:27 13.07391 -59.49510 176 ft 64 kts 76°
2026-05-07 19:28 13.07470 -59.49191 176 ft 43 kts 76°
2026-05-07 19:28 13.07527 -59.49008 175 ft 20 kts 57°
2026-05-07 19:28 13.07594 -59.48934 176 ft 15 kts 45°
2026-05-07 19:28 13.07668 -59.48855 176 ft 16 kts 46°
2026-05-07 19:29 13.07741 -59.48776 175 ft 10 kts 45°
2026-05-07 19:29 13.07782 -59.48715 175 ft 7 kts 75°
2026-05-07 19:29 13.07796 -59.48659 175 ft 8 kts 76°
2026-05-07 19:29 13.07803 -59.48627 175 ft 6 kts 76°
2026-05-07 19:30 13.07828 -59.48605 175 ft 5 kts
2026-05-07 19:30 13.07868 -59.48615 175 ft 2 kts 345°
2026-05-07 19:30 13.07890 -59.48621 175 ft 5 kts 345°
2026-05-07 19:30 13.07904 -59.48625 175 ft 1 kts 345°
2026-05-07 19:31 13.07905 -59.48625 175 ft 0 kts 345°